Vorticity
11 7 0 6 3 5 5 4 2 -0 1 2 4 30 42 40 10 5 5 10 10 12 4 15 14 15 7 -15 16 19 15 2 -1 -1 12 17 17 19 10 10 8 10 12 14
8 1 9 5 3 3 11 3 4 0 2 3 5 21 31 40 10 4 7 5 3 10 14 8 7 -0 -1 2 14 12 -5 6 4 12 11 1 -4 -1 2 5 5 7 9 7
6 4 9 7 -0 4 8 3 4 3 -0 -2 7 21 34 42 14 7 2 9 5 2 11 20 4 23 16 2 19 14 7 8 7 11 8 15 15 14 11 11 12 1 5 7
9 8 8 -7 5 10 9 2 2 8 7 -1 6 19 38 41 21 7 8 1 8 8 3 14 24 3 -6 9 3 -9 4 8 5 6 5 4 7 6 6 -1 -2 11 -5 18
10 7 -1 6 2 7 5 5 2 9 4 -7 8 12 31 38 29 10 9 6 1 5 9 7 8 17 11 7 5 7 2 5 -1 1 0 2 -0 -4 -1 5 7 8 16 -1
5 10 9 12 5 9 4 13 4 10 2 -0 3 9 16 26 42 19 7 8 7 1 5 8 8 7 8 9 13 19 13 13 13 10 9 12 13 15 14 17 16 9 7 3
2 2 5 12 9 -2 8 10 5 9 -0 4 7 7 15 40 27 41 11 7 7 10 4 4 7 8 6 5 6 8 9 9 9 9 7 6 9 10 10 6 8 11 10 10
7 -2 -7 4 4 10 5 11 7 7 -1 9 6 5 18 35 15 27 38 9 6 8 10 10 8 7 8 9 7 8 8 11 12 12 14 14 14 14 10 10 11 11 11 12
5 0 11 2 8 11 3 12 6 7 1 14 8 7 10 24 19 13 24 31 10 5 7 7 8 10 9 8 9 9 11 11 10 11 10 8 10 11 8 9 10 11 9 10
-2 -4 -5 9 -2 9 5 13 8 5 3 9 2 -2 14 21 23 32 22 18 25 4 11 5 8 10 10 11 11 10 10 12 14 15 17 14 14 10 10 6 11 11 12 12
10 -2 -4 12 17 3 11 8 9 2 5 4 8 -1 1 11 19 18 24 20 21 25 6 12 7 6 9 8 9 8 7 6 5 8 8 6 11 14 12 9 10 11 11 11
-4 6 3 1 7 8 19 2 10 2 6 4 9 5 2 6 12 16 14 23 24 20 30 8 8 6 4 5 6 4 5 3 3 5 6 6 5 6 8 6 6 7 7 8
14 -5 17 -4 6 9 16 11 4 8 8 5 10 6 2 8 10 15 23 18 4 24 32 26 10 5 11 6 5 5 3 3 2 7 9 10 11 11 10 8 8 7 6 6
3 13 6 -3 3 15 18 7 4 6 10 8 8 9 2 10 7 12 18 22 17 10 5 37 20 9 3 7 7 7 6 5 1 4 7 5 8 8 8 11 10 9 9 10
-18 1 15 2 8 17 15 7 8 7 7 6 5 7 4 3 15 5 15 22 20 16 13 12 31 15 12 14 17 14 9 1 -1 4 7 6 17 8 10 18 18 13 13 18
5 -3 16 14 7 20 14 9 7 10 4 6 9 10 6 6 12 4 12 16 18 16 14 21 21 23 20 10 11 7 20 30 29 20 11 13 13 19 12 6 2 2 4 7
-3 3 7 13 3 19 9 7 8 10 8 7 9 5 8 7 6 12 11 14 15 18 11 8 8 13 21 24 23 23 21 21 18 18 26 22 15 4 8 7 12 10 5 8
-1 -2 18 6 4 14 12 8 10 8 7 6 9 8 8 5 12 13 4 20 12 18 17 15 10 10 8 9 8 10 6 6 8 10 8 7 12 11 7 8 8 7 4 8
15 17 25 8 4 14 5 11 8 8 6 11 9 7 6 6 8 8 13 10 3 17 19 19 19 13 10 8 9 8 11 11 9 10 11 11 10 12 12 12 19 17 6 12
4 6 27 3 7 9 10 7 9 5 4 8 6 6 5 7 5 8 9 4 9 4 10 15 16 24 22 19 15 9 5 3 3 6 10 11 13 8 9 6 10 14 3 13
9 21 23 1 12 8 5 6 6 2 4 5 5 7 3 0 6 5 7 7 1 10 11 4 4 1 6 1 8 13 14 16 19 21 17 14 11 8 7 12 11 14 11 11
8 21 15 4 5 6 4 3 4 5 3 2 3 1 4 3 3 5 7 11 9 5 18 1 2 7 4 2 -5 -9 7 14 17 14 -2 -7 6 21 31 9 9 13 7 20
2 21 12 9 -3 4 6 3 2 5 3 2 -2 -1 0 3 2 5 6 4 5 6 4 7 16 16 7 -4 2 3 5 3 -1 0 -2 12 5 2 5 27 19 9 10 12
13 29 -0 5 5 3 4 4 4 3 4 2 1 -1 1 2 4 0 7 1 -0 7 7 12 6 11 7 13 10 5 6 3 -0 2 8 5 7 6 2 20 26 22 5 18
17 26 -2 11 10 1 5 3 2 2 1 3 4 3 4 1 5 2 -1 -1 5 12 15 14 12 8 9 4 7 5 7 6 6 6 7 10 11 14 11 13 17 30 11 5
14 10 10 12 10 -1 7 4 6 7 5 3 2 2 4 4 4 6 7 13 14 14 16 13 12 9 5 3 3 4 8 7 9 12 15 19 23 23 17 9 13 23 21 11
13 12 12 8 3 -0 9 4 4 7 9 7 8 8 7 6 9 16 13 12 14 15 17 15 10 4 3 5 5 7 7 15 21 27 35 36 33 28 23 22 18 25 26 11
Height
5709 5708 5707 5704 5701 5697 5692 5686 5679 5671 5663 5652 5638 5628 5620 5619 5621 5623 5624 5625 5625 5625 5626 5627 5630 5634 5637 5639 5642 5645 5648 5652 5653 5657 5660 5663 5667 5671 5674 5677 5682 5684 5686 5689
5702 5703 5702 5700 5696 5693 5688 5682 5676 5670 5662 5652 5639 5629 5621 5618 5620 5621 5622 5624 5626 5627 5628 5631 5633 5635 5638 5640 5642 5645 5648 5650 5653 5655 5659 5660 5664 5669 5672 5675 5677 5678 5680 5681
5695 5697 5697 5695 5692 5688 5684 5679 5674 5669 5661 5651 5640 5629 5621 5615 5617 5620 5622 5623 5626 5628 5629 5631 5634 5635 5637 5639 5641 5644 5647 5650 5653 5655 5658 5660 5663 5666 5668 5669 5670 5675 5674 5678
5689 5692 5691 5689 5687 5684 5681 5675 5671 5667 5660 5651 5640 5629 5620 5614 5615 5618 5620 5623 5624 5627 5629 5630 5632 5635 5637 5639 5641 5644 5647 5649 5652 5654 5656 5658 5660 5663 5665 5666 5669 5668 5673 5671
5683 5686 5685 5684 5683 5679 5676 5671 5668 5664 5659 5652 5641 5631 5622 5614 5613 5616 5616 5620 5622 5624 5627 5629 5630 5633 5636 5639 5641 5643 5645 5647 5649 5652 5654 5656 5657 5659 5661 5662 5663 5661 5663 5667
5675 5680 5680 5679 5678 5675 5671 5666 5664 5662 5657 5652 5642 5632 5623 5616 5611 5612 5614 5617 5620 5621 5625 5628 5630 5631 5633 5636 5638 5640 5642 5644 5645 5647 5649 5650 5652 5653 5653 5654 5655 5655 5656 5659
5669 5672 5674 5673 5672 5670 5666 5663 5661 5658 5655 5650 5640 5632 5624 5618 5613 5610 5611 5615 5616 5619 5622 5625 5628 5629 5630 5631 5633 5635 5637 5639 5641 5642 5643 5645 5647 5646 5647 5647 5647 5648 5649 5650
5661 5665 5668 5667 5666 5665 5661 5659 5657 5654 5651 5647 5640 5631 5624 5618 5614 5610 5609 5610 5615 5615 5618 5621 5624 5626 5627 5629 5630 5632 5634 5636 5638 5639 5640 5641 5640 5640 5640 5640 5641 5641 5641 5642
5654 5658 5660 5662 5661 5659 5656 5655 5654 5652 5649 5645 5640 5632 5624 5617 5612 5609 5608 5607 5610 5613 5614 5616 5619 5622 5623 5625 5626 5627 5629 5630 5633 5633 5634 5634 5634 5634 5634 5634 5633 5635 5635 5635
5648 5651 5654 5656 5656 5655 5653 5651 5650 5648 5645 5643 5638 5632 5624 5616 5611 5607 5604 5605 5606 5608 5612 5613 5615 5617 5619 5621 5622 5623 5624 5625 5626 5627 5628 5627 5628 5629 5629 5629 5630 5628 5628 5628
5641 5645 5648 5651 5651 5651 5649 5647 5646 5645 5642 5640 5636 5631 5626 5616 5610 5606 5603 5601 5603 5604 5606 5608 5611 5613 5614 5616 5617 5618 5619 5620 5621 5621 5622 5622 5622 5622 5624 5623 5622 5622 5621 5622
5635 5639 5642 5646 5646 5646 5644 5642 5641 5640 5639 5637 5634 5630 5625 5617 5609 5604 5600 5600 5599 5600 5600 5604 5606 5609 5610 5612 5613 5613 5614 5615 5615 5616 5615 5615 5615 5616 5615 5615 5616 5616 5616 5615
5628 5633 5636 5640 5640 5641 5639 5638 5637 5636 5634 5633 5631 5627 5623 5617 5608 5601 5600 5598 5598 5598 5597 5598 5601 5603 5604 5606 5608 5609 5609 5610 5611 5611 5611 5609 5609 5609 5608 5608 5609 5608 5608 5608
5621 5626 5630 5633 5635 5636 5634 5634 5633 5632 5631 5629 5628 5625 5621 5616 5608 5601 5598 5596 5595 5596 5594 5594 5594 5595 5597 5598 5599 5601 5603 5604 5605 5605 5605 5604 5603 5600 5600 5600 5599 5600 5600 5599
5615 5620 5624 5626 5629 5631 5630 5629 5628 5627 5628 5626 5624 5622 5619 5614 5608 5601 5596 5594 5592 5591 5592 5591 5591 5591 5592 5593 5595 5597 5597 5596 5597 5598 5598 5598 5597 5593 5591 5591 5590 5589 5590 5590
5609 5614 5617 5620 5623 5626 5625 5624 5624 5623 5623 5623 5621 5619 5616 5612 5607 5601 5595 5591 5590 5590 5590 5590 5588 5588 5588 5589 5591 5590 5589 5587 5588 5589 5589 5589 5589 5587 5584 5584 5583 5581 5581 5581
5603 5608 5611 5614 5617 5620 5621 5621 5620 5620 5620 5619 5617 5616 5613 5610 5605 5601 5596 5591 5589 5588 5588 5588 5587 5586 5586 5584 5584 5584 5583 5582 5581 5581 5581 5579 5578 5577 5576 5576 5575 5574 5571 5570
5597 5601 5605 5609 5612 5615 5616 5615 5616 5617 5618 5616 5615 5613 5611 5608 5603 5600 5596 5592 5590 5587 5586 5586 5586 5584 5583 5582 5582 5581 5580 5579 5577 5574 5572 5572 5570 5568 5567 5566 5564 5562 5561 5560
5590 5595 5600 5603 5606 5609 5612 5611 5612 5613 5615 5612 5612 5610 5608 5605 5602 5599 5597 5593 5591 5588 5585 5583 5583 5581 5580 5578 5577 5575 5574 5572 5571 5568 5565 5562 5560 5558 5556 5555 5552 5551 5549 5547
5585 5590 5594 5597 5601 5603 5606 5606 5608 5609 5608 5607 5607 5606 5604 5602 5599 5597 5597 5593 5591 5588 5586 5583 5580 5577 5575 5573 5571 5568 5567 5564 5562 5559 5556 5553 5550 5547 5544 5541 5539 5537 5535 5533
5579 5584 5589 5592 5595 5599 5600 5602 5604 5604 5603 5602 5601 5601 5600 5597 5597 5594 5593 5590 5588 5587 5585 5582 5578 5575 5572 5568 5566 5563 5560 5556 5552 5550 5546 5543 5541 5537 5533 5530 5526 5524 5521 5519
5575 5580 5584 5587 5590 5593 5597 5598 5599 5599 5598 5597 5597 5597 5596 5594 5593 5591 5590 5588 5586 5583 5580 5577 5573 5571 5566 5563 5559 5556 5552 5547 5543 5539 5536 5532 5527 5521 5518 5517 5514 5512 5510 5508
5568 5573 5576 5580 5583 5587 5590 5593 5594 5593 5593 5593 5593 5593 5592 5590 5588 5587 5584 5582 5581 5577 5574 5570 5567 5563 5559 5554 5549 5544 5541 5537 5532 5527 5522 5518 5513 5508 5504 5501 5500 5499 5498 5497
5562 5566 5570 5573 5577 5581 5585 5587 5588 5588 5588 5589 5588 5588 5587 5583 5581 5579 5576 5574 5571 5567 5565 5561 5556 5552 5547 5543 5538 5533 5527 5522 5517 5510 5504 5499 5494 5491 5488 5485 5484 5483 5484 5484
5556 5561 5563 5567 5573 5575 5578 5580 5582 5583 5583 5583 5583 5582 5581 5577 5574 5572 5567 5563 5560 5555 5552 5548 5542 5538 5534 5529 5524 5518 5510 5504 5497 5489 5482 5476 5472 5471 5469 5466 5466 5466 5468 5471
5550 5554 5558 5563 5565 5569 5572 5574 5575 5575 5575 5575 5576 5575 5572 5569 5566 5563 5557 5553 5547 5542 5536 5531 5528 5522 5517 5512 5506 5497 5489 5481 5474 5465 5458 5453 5449 5448 5447 5447 5448 5450 5452 5456
5544 5547 5553 5556 5559 5563 5565 5567 5568 5569 5568 5567 5568 5565 5563 5559 5556 5551 5546 5541 5535 5528 5523 5518 5513 5507 5501 5494 5485 5475 5467 5459 5449 5440 5432 5427 5425 5425 5427 5429 5432 5435 5437 5441